Weather History for KAJG - January, 2012

Change the Weather History Date:

Sunday, January 8, 2012

  Actual Average (KLWV) Record (KLWV)
Temperature  
Mean Temperature 40 °F 31 °F  
Max Temperature 48 °F 39 °F 63 °F (2006)
Min Temperature 32 °F 23 °F 0 °F (2015)
Degree Days  
Heating Degree Days 25 34  
Month to date heating degree days 272  
Since 1 July heating degree days 2071  
Cooling Degree Days 0 0  
Month to date cooling degree days 0  
Year to date cooling degree days 0  
Moisture  
Dew Point 31 °F    
Average Humidity 72    
Maximum Humidity 93    
Minimum Humidity 49    
Precipitation  
Precipitation 0.00 in 0.08 in 1.14 in (2008)
Month to date precipitation 0.74  
Year to date precipitation 0.74  
Sea Level Pressure  
Sea Level Pressure 30.27 in    
Wind  
Wind Speed 5 mph (NE)    
Max Wind Speed 14 mph    
Max Gust Speed 17 mph    
Visibility 10 miles    
Events      
T = Trace of Precipitation, MM = Missing Value Source: NWS Daily Summary

Daily Weather History Graph

Daily Weather History Graph

Search for Another Location

Airport or City:

Trip Planner

Search our weather history database for the weather conditions in past years. The results will help you decide how hot, cold, wet, or windy it might be!

Date:

Astronomy

Jan. 08, 2012 Rise Set
Actual Time 7:08 AM CST 4:46 PM CST
Civil Twilight 6:39 AM CST 5:15 PM CST
Nautical Twilight 6:06 AM CST 5:48 PM CST
Astronomical Twilight 5:34 AM CST 6:20 PM CST
Moon 4:28 PM CST (1/8) 6:27 AM CST (1/8)
Length of Visible Light 10h 36m
Length of Day
9h 37m
Full, 100% of the Moon is Illuminated
Jan 8
Full
Jan 9
Full
Jan 16
Last Quarter
Jan 23
New
Jan 30
First Quarter

Hourly Weather History & Observations

Time (CST) Temp. Windchill Dew Point Humidity Pressure Visibility Wind Dir Wind Speed Gust Speed Precip Events Conditions
12:15 AM 37.4 °F 32.8 °F 32.0 °F 81% 30.22 in 10.0 mi NNE 5.8 mph - N/A   Clear
12:35 AM 37.4 °F 34.9 °F 32.0 °F 81% 30.22 in 10.0 mi NNE 3.5 mph - N/A   Clear
12:55 AM 37.4 °F 34.9 °F 32.0 °F 81% 30.23 in 10.0 mi NE 3.5 mph - N/A   Clear
1:15 AM 35.6 °F - 32.0 °F 87% 30.23 in 10.0 mi Calm Calm - N/A   Clear
1:35 AM 32.0 °F - 30.2 °F 93% 30.24 in 10.0 mi Calm Calm - N/A   Clear
1:55 AM 32.0 °F 28.7 °F 30.2 °F 93% 30.25 in 10.0 mi NNE 3.5 mph - N/A   Clear
2:15 AM 32.0 °F 28.7 °F 30.2 °F 93% 30.24 in 10.0 mi NE 3.5 mph - N/A   Clear
2:35 AM 32.0 °F 27.5 °F 30.2 °F 93% 30.24 in 10.0 mi NNE 4.6 mph - N/A   Clear
2:55 AM 33.8 °F 28.6 °F 30.2 °F 87% 30.23 in 10.0 mi NE 5.8 mph - N/A   Clear
3:15 AM 33.8 °F 29.6 °F 30.2 °F 87% 30.24 in 10.0 mi NNE 4.6 mph - N/A   Clear
3:35 AM 35.6 °F 30.7 °F 32.0 °F 87% 30.25 in 10.0 mi NNE 5.8 mph - N/A   Clear
3:55 AM 35.6 °F 30.7 °F 30.2 °F 81% 30.25 in 10.0 mi NE 5.8 mph - N/A   Clear
4:35 AM 32.0 °F - 30.2 °F 93% 30.25 in 10.0 mi Calm Calm - N/A   Clear
4:55 AM 32.0 °F - 30.2 °F 93% 30.25 in 10.0 mi Calm Calm - N/A   Clear
5:15 AM 32.0 °F 28.7 °F 30.2 °F 93% 30.26 in 10.0 mi NE 3.5 mph - N/A   Clear
5:35 AM 32.0 °F - 30.2 °F 93% 30.26 in 10.0 mi Calm Calm - N/A   Clear
5:55 AM 32.0 °F - 30.2 °F 93% 30.26 in 10.0 mi Calm Calm - N/A   Clear
6:15 AM 32.0 °F 28.7 °F 30.2 °F 93% 30.27 in 10.0 mi NE 3.5 mph - N/A   Clear
6:35 AM 32.0 °F 28.7 °F 30.2 °F 93% 30.27 in 10.0 mi NE 3.5 mph - N/A   Clear
7:15 AM 32.0 °F 27.5 °F 30.2 °F 93% 30.28 in 10.0 mi NNE 4.6 mph - N/A   Clear
7:35 AM 33.8 °F 27.7 °F 30.2 °F 87% 30.29 in 10.0 mi NE 6.9 mph - N/A   Clear
7:55 AM 33.8 °F 26.4 °F 32.0 °F 93% 30.29 in 10.0 mi NE 9.2 mph - N/A   Clear
8:15 AM 33.8 °F 27.0 °F 32.0 °F 93% 30.30 in 10.0 mi NE 8.1 mph - N/A   Clear
8:35 AM 35.6 °F 29.9 °F 32.0 °F 87% 30.31 in 10.0 mi NE 6.9 mph - N/A   Clear
8:55 AM 35.6 °F 29.9 °F 32.0 °F 87% 30.32 in 10.0 mi ENE 6.9 mph - N/A   Clear
9:15 AM 37.4 °F 32.1 °F 32.0 °F 81% 30.33 in 10.0 mi ENE 6.9 mph - N/A   Clear
9:35 AM 39.2 °F 33.0 °F 32.0 °F 75% 30.33 in 10.0 mi ENE 9.2 mph - N/A   Clear
9:55 AM 41.0 °F 34.7 °F 32.0 °F 70% 30.33 in 10.0 mi East 10.4 mph - N/A   Clear
10:15 AM 42.8 °F 37.0 °F 32.0 °F 66% 30.33 in 10.0 mi East 10.4 mph - N/A   Clear
10:35 AM 42.8 °F 37.5 °F 32.0 °F 66% 30.33 in 10.0 mi East 9.2 mph - N/A   Clear
10:55 AM 44.6 °F 39.7 °F 32.0 °F 61% 30.31 in 10.0 mi ENE 9.2 mph - N/A   Clear
11:15 AM 44.6 °F 41.4 °F 32.0 °F 61% 30.30 in 10.0 mi East 5.8 mph - N/A   Clear
11:35 AM 46.4 °F 42.4 °F 32.0 °F 57% 30.30 in 10.0 mi ENE 8.1 mph - N/A   Clear
11:55 AM 44.6 °F 39.7 °F 32.0 °F 61% 30.29 in 10.0 mi East 9.2 mph - N/A   Clear
12:15 PM 44.6 °F 42.2 °F 32.0 °F 61% 30.29 in 10.0 mi ENE 4.6 mph - N/A   Clear
12:35 PM 46.4 °F 43.5 °F 32.0 °F 57% 30.28 in 10.0 mi ENE 5.8 mph - N/A   Clear
1:15 PM 46.4 °F 42.9 °F 32.0 °F 57% 30.28 in 10.0 mi NE 6.9 mph - N/A   Clear
1:35 PM 48.2 °F - 32.0 °F 54% 30.27 in 10.0 mi ENE 8.1 mph - N/A   Clear
1:55 PM 46.4 °F 41.9 °F 32.0 °F 57% 30.26 in 10.0 mi ENE 9.2 mph - N/A   Scattered Clouds
2:15 PM 46.4 °F 40.4 °F 30.2 °F 53% 30.25 in 10.0 mi ENE 13.8 mph 17.3 mph N/A   Scattered Clouds
2:35 PM 46.4 °F 41.9 °F 32.0 °F 57% 30.25 in 10.0 mi East 9.2 mph - N/A   Mostly Cloudy
2:55 PM 46.4 °F 42.9 °F 30.2 °F 53% 30.26 in 10.0 mi ENE 6.9 mph - N/A   Overcast
3:15 PM 46.4 °F 42.9 °F 32.0 °F 57% 30.25 in 10.0 mi NE 6.9 mph - N/A   Overcast
3:35 PM 46.4 °F 42.9 °F 32.0 °F 57% 30.26 in 10.0 mi NNE 6.9 mph - N/A   Overcast
3:55 PM 46.4 °F 43.5 °F 32.0 °F 57% 30.27 in 10.0 mi NNE 5.8 mph - N/A   Overcast
4:15 PM 46.4 °F 43.5 °F 32.0 °F 57% 30.26 in 10.0 mi NNE 5.8 mph - N/A   Overcast
4:35 PM 44.6 °F 41.4 °F 30.2 °F 57% 30.26 in 10.0 mi NE 5.8 mph - N/A   Overcast
4:55 PM 44.6 °F 40.2 °F 30.2 °F 57% 30.26 in 10.0 mi NE 8.1 mph - N/A   Overcast
5:15 PM 44.6 °F 41.4 °F 30.2 °F 57% 30.26 in 10.0 mi NE 5.8 mph - N/A   Mostly Cloudy
5:35 PM 44.6 °F 40.2 °F 28.4 °F 53% 30.26 in 10.0 mi NNE 8.1 mph - N/A   Mostly Cloudy
6:15 PM 44.6 °F 40.7 °F 28.4 °F 53% 30.27 in 10.0 mi NE 6.9 mph - N/A   Overcast
6:35 PM 44.6 °F 40.7 °F 26.6 °F 49% 30.27 in 10.0 mi NNE 6.9 mph - N/A   Overcast
6:55 PM 44.6 °F 41.4 °F 28.4 °F 53% 30.26 in 10.0 mi NE 5.8 mph - N/A   Overcast
7:15 PM 42.8 °F 38.6 °F 28.4 °F 57% 30.26 in 10.0 mi NE 6.9 mph - N/A   Overcast
7:35 PM 42.8 °F 38.6 °F 28.4 °F 57% 30.26 in 10.0 mi NE 6.9 mph - N/A   Overcast
7:55 PM 42.8 °F 39.3 °F 28.4 °F 57% 30.26 in 10.0 mi NE 5.8 mph - N/A   Overcast
8:15 PM 42.8 °F 39.3 °F 30.2 °F 61% 30.27 in 10.0 mi NE 5.8 mph - N/A   Overcast
8:35 PM 42.8 °F 39.3 °F 28.4 °F 57% 30.26 in 10.0 mi NE 5.8 mph - N/A   Mostly Cloudy
8:55 PM 42.8 °F 39.3 °F 28.4 °F 57% 30.26 in 10.0 mi NE 5.8 mph - N/A   Mostly Cloudy
9:15 PM 42.8 °F 39.3 °F 30.2 °F 61% 30.27 in 10.0 mi NE 5.8 mph - N/A   Overcast
9:35 PM 42.8 °F 39.3 °F 28.4 °F 57% 30.26 in 10.0 mi NE 5.8 mph - N/A   Overcast
9:55 PM 42.8 °F 38.6 °F 28.4 °F 57% 30.26 in 10.0 mi NE 6.9 mph - N/A   Overcast
10:15 PM 42.8 °F 40.1 °F 30.2 °F 61% 30.26 in 10.0 mi NE 4.6 mph - N/A   Overcast
10:35 PM 42.8 °F 37.5 °F 30.2 °F 61% 30.25 in 10.0 mi NE 9.2 mph - N/A   Overcast
11:15 PM 41.0 °F 35.8 °F 30.2 °F 65% 30.24 in 10.0 mi NE 8.1 mph - N/A   Overcast
11:35 PM 41.0 °F 36.4 °F 30.2 °F 65% 30.24 in 10.0 mi NE 6.9 mph - N/A   Overcast
11:55 PM 41.0 °F 37.1 °F 30.2 °F 65% 30.24 in 10.0 mi NE 5.8 mph - N/A   Overcast